DECAYED

STARLINK-1895, 47175 (Decayed)

Orbit data source: Space-Track

STARLINK-1895, 47175 was a payload satellite owned by SpaceX/Seattle (US) in LEO that was launched on Wed, 25 Nov 2020 UTC via an FALCON 9 launch vehicle from the Air Force Eastern Test Range (AFETR). Payload-class satellites include a variety of spacecraft equipped with specific instruments for various scientific and technological missions. These include communications satellites like Starlink; space stations such as the ISS; scientific satellites like the Hubble; Earth observation satellites from companies like Planet Labs, Umbra, and HawkEye 360; GPS; miniature CubeSats for education and research; and military/defense satellites.

Not visible in the next 10 days
Identifier
47175, 2020-088BF
Orbit
Decayed
Country
Flag of USUS
Related business
Manufacturer
SpaceX/Seattle
Mission
Decayed Commercial Communications
Bus & Motor
STARLINK, Unknown motor
Mass
260 kg wet, ~248 kg dry
Launch date (UTC)
2020-11-25 (6 years ago)
Launch vehicle
FALCON 9
Launch site
Air Force Eastern Test Range (AFETR)
Object type
Payload
Rocket body
Debris
Shape & HBR
Box + 1 Pan, 10.1 m
Radar Cross Section
13.562 m², Large (>1 m²)

Expand to show TLE details & history
Last TLE update: 1 year ago

TLE from 1 year ago
0 STARLINK-1895
1 47175U 20088BF  25042.81499571  .13703480  12485-4  61492-3 0  9994
2 47175  53.0340 191.0532 0005973 292.3960 222.6946 16.43066884233822
Epoch: 2025-02-11T19:33Z
TLE epoch observation values (Epoch: 2025-02-11T19:33:35.629Z)
Latitude
19.74389°
Longitude
-80.03902°
Altitude
160.988 km
Speed
7.811 km/s
True Right ascension
23h 41m 53s
True Declination
19° 37' 29"
Sunlit
Object was in daylight at epoch
Visualization orbit readout
Latitude
Unknown
Longitude
Unknown
Altitude
Unknown
Speed
Unknown
Apparent Right ascension
Unknown
Apparent Declination
Unknown
Sunlit
N/A
Visualization observer readout
Local Sidereal Time
21:28:04
Azimuth
Unknown
Elevation
Unknown
Doppler factor
Unknown
Orbital elements
Apogee altitude
161.851 km
Perigee altitude
154.043 km
Semi-major axis
6,536.084 km
Eccentricity
0.0006
Inclination
53.034°
RAAN
191.0532°
Arg. of periapsis
292.396°
True anomaly
222.64821°
Mean anomaly
222.6946°
Eccentric anomaly
222.6714°
Mean motion
4.1074 °/min
Orbital period
87.65 mins
BSTAR
0.00061492
Loading maneuver chart data...
Computing Atmospheric mass density...

Documentation

Showing up to 5 results
|